Voltar ao catálogo

COSMOS 252 DEB

AtivoLEO
NORAD 15519·DEBRIS·🇷🇺 Russia

Lançado Nov 1, 1968 de Baikonur Cosmodrome

Loading…

Próximas Passagens (próximas 24 horas)

TLE

AtualizadoSource: Space-Track

Época: Sep 14, 2026, 10:38 UTC

1 15519U 68097EF  26257.44307883  .00000220  00000-0  14278-3 0  9999
2 15519  62.3769  51.4934 0869280 304.9511  47.2782 13.07464500831246

Acompanhe COSMOS 252 DEB em tempo real com AllMySat

Download on the App Store